Location: Laan Hart van Zuid
(52.2563°N, 6.7904°E)
Time: 08:52:34
(UTC+01:00)

BlueWalker 3 - Visible Passes

Search period start: 18 January 2026 00:00
Search period end: 28 January 2026 00:00
Orbit: 451 x 463 km, 53.2° (Epoch: 17 January)

Date Brightness Start Highest point End Pass type
(mag) Time Alt. Az. Time Alt. Az. Time Alt. Az.
20 Jan 4.3 18:59:34 10° SSE 18:59:37 10° SSE 18:59:37 10° SSE visible
21 Jan 4.4 19:59:02 10° SW 19:59:46 15° SW 19:59:46 15° SW visible
22 Jan 3.2 19:23:49 10° SSW 19:26:04 28° S 19:26:04 28° S visible
23 Jan 2.9 18:48:38 10° SSW 18:51:43 28° SE 18:52:17 26° SE visible
23 Jan 4.7 20:25:22 10° WSW 20:26:02 15° WSW 20:26:02 15° WSW visible
24 Jan 3.3 18:13:30 10° SSW 18:16:24 23° SE 18:18:27 15° E visible
24 Jan 3.2 19:49:57 10° WSW 19:52:11 36° WSW 19:52:11 36° WSW visible
25 Jan 3.6 17:38:27 10° S 17:41:04 19° SE 17:43:41 10° E visible
25 Jan 1.6 19:14:33 10° WSW 19:18:06 67° SSE 19:18:16 66° SE visible
26 Jan 1.9 18:39:10 10° SW 18:42:41 58° SSE 18:44:19 28° E visible
26 Jan 4.1 20:16:35 10° W 20:18:03 23° W 20:18:03 23° W visible
27 Jan 2.2 18:03:47 10° SW 18:07:15 50° SSE 18:10:19 13° E visible
27 Jan 2.3 19:41:07 10° W 19:44:03 56° WNW 19:44:03 56° WNW visible
